station,date_time,water_elev
365559089065501,05/02/2011 23:16,319.11
365559089065501,05/02/2011 23:17,319.15
365559089065501,05/02/2011 23:18,319.15
365559089065501,05/02/2011 23:19,319.17
365559089065501,05/02/2011 23:20,319.19
365559089065501,05/02/2011 23:21,319.21
365559089065501,05/02/2011 23:22,319.26
365559089065501,05/02/2011 23:23,319.24
365559089065501,05/02/2011 23:24,319.27
365559089065501,05/02/2011 23:25,319.32
365559089065501,05/02/2011 23:26,319.33
365559089065501,05/02/2011 23:27,319.35
365559089065501,05/02/2011 23:28,319.31
365559089065501,05/02/2011 23:29,319.4
365559089065501,05/02/2011 23:30,319.39
365559089065501,05/02/2011 23:31,319.46
365559089065501,05/02/2011 23:32,319.45
365559089065501,05/02/2011 23:33,319.52
365559089065501,05/02/2011 23:34,319.5
365559089065501,05/02/2011 23:35,319.6
365559089065501,05/02/2011 23:36,319.63
365559089065501,05/02/2011 23:37,319.64
365559089065501,05/02/2011 23:38,319.61
365559089065501,05/02/2011 23:39,319.72
365559089065501,05/02/2011 23:40,319.74
365559089065501,05/02/2011 23:41,319.77
365559089065501,05/02/2011 23:42,319.84
365559089065501,05/02/2011 23:43,319.85
365559089065501,05/02/2011 23:44,319.91
365559089065501,05/02/2011 23:45,319.91
365559089065501,05/02/2011 23:46,319.95
365559089065501,05/02/2011 23:47,319.95
365559089065501,05/02/2011 23:48,320.04
365559089065501,05/02/2011 23:49,320.09
365559089065501,05/02/2011 23:50,320.16
365559089065501,05/02/2011 23:51,320.18
365559089065501,05/02/2011 23:52,320.13
365559089065501,05/02/2011 23:53,320.21
365559089065501,05/02/2011 23:54,320.24
365559089065501,05/02/2011 23:55,320.28
365559089065501,05/02/2011 23:56,320.33
365559089065501,05/02/2011 23:57,320.4
365559089065501,05/02/2011 23:58,320.38
365559089065501,05/02/2011 23:59,320.46
365559089065501,05/03/2011 00:00,320.45
365559089065501,05/03/2011 00:01,320.49
365559089065501,05/03/2011 00:02,320.59
365559089065501,05/03/2011 00:03,320.51
365559089065501,05/03/2011 00:04,320.62
365559089065501,05/03/2011 00:05,320.62
365559089065501,05/03/2011 00:06,320.68
365559089065501,05/03/2011 00:07,320.65
365559089065501,05/03/2011 00:08,320.8
365559089065501,05/03/2011 00:09,320.79
365559089065501,05/03/2011 00:10,320.76
365559089065501,05/03/2011 00:11,320.82
365559089065501,05/03/2011 00:12,320.87
365559089065501,05/03/2011 00:13,320.93
365559089065501,05/03/2011 00:14,320.94
365559089065501,05/03/2011 00:15,320.92
365559089065501,05/03/2011 00:16,321
365559089065501,05/03/2011 00:17,321.02
365559089065501,05/03/2011 00:18,321.05
365559089065501,05/03/2011 00:19,321
365559089065501,05/03/2011 00:20,321.05
365559089065501,05/03/2011 00:21,321.1
365559089065501,05/03/2011 00:22,321.17
365559089065501,05/03/2011 00:23,321.19
365559089065501,05/03/2011 00:24,321.19
365559089065501,05/03/2011 00:25,321.28
365559089065501,05/03/2011 00:26,321.28
365559089065501,05/03/2011 00:27,321.34
365559089065501,05/03/2011 00:28,321.36
365559089065501,05/03/2011 00:29,321.36
365559089065501,05/03/2011 00:30,321.39
365559089065501,05/03/2011 00:31,321.44
365559089065501,05/03/2011 00:32,321.41
365559089065501,05/03/2011 00:33,321.43
365559089065501,05/03/2011 00:34,321.52
365559089065501,05/03/2011 00:35,321.48
365559089065501,05/03/2011 00:36,321.52
365559089065501,05/03/2011 00:37,321.59
365559089065501,05/03/2011 00:38,321.52
365559089065501,05/03/2011 00:39,321.56
365559089065501,05/03/2011 00:40,321.57
365559089065501,05/03/2011 00:41,321.67
365559089065501,05/03/2011 00:42,321.68
365559089065501,05/03/2011 00:43,321.67
365559089065501,05/03/2011 00:44,321.74
365559089065501,05/03/2011 00:45,321.71
365559089065501,05/03/2011 00:46,321.79
365559089065501,05/03/2011 00:47,321.81
365559089065501,05/03/2011 00:48,321.78
365559089065501,05/03/2011 00:49,321.85
365559089065501,05/03/2011 00:50,321.84
365559089065501,05/03/2011 00:51,321.84
365559089065501,05/03/2011 00:52,321.86
365559089065501,05/03/2011 00:53,321.92
365559089065501,05/03/2011 00:54,321.92
365559089065501,05/03/2011 00:55,321.92
365559089065501,05/03/2011 00:56,321.91
365559089065501,05/03/2011 00:57,321.96
365559089065501,05/03/2011 00:58,321.96
365559089065501,05/03/2011 00:59,321.99
365559089065501,05/03/2011 01:00,321.99
365559089065501,05/03/2011 01:01,322.07
365559089065501,05/03/2011 01:02,322.11
365559089065501,05/03/2011 01:03,322.09
365559089065501,05/03/2011 01:04,322.12
365559089065501,05/03/2011 01:05,322.05
365559089065501,05/03/2011 01:06,322.14
365559089065501,05/03/2011 01:07,322.14
365559089065501,05/03/2011 01:08,322.2
365559089065501,05/03/2011 01:09,322.14
365559089065501,05/03/2011 01:10,322.18
365559089065501,05/03/2011 01:11,322.24
365559089065501,05/03/2011 01:12,322.25
365559089065501,05/03/2011 01:13,322.24
365559089065501,05/03/2011 01:14,322.21
365559089065501,05/03/2011 01:15,322.28
365559089065501,05/03/2011 01:16,322.25
365559089065501,05/03/2011 01:17,322.26
365559089065501,05/03/2011 01:18,322.26
365559089065501,05/03/2011 01:19,322.32
365559089065501,05/03/2011 01:20,322.32
365559089065501,05/03/2011 01:21,322.32
365559089065501,05/03/2011 01:22,322.34
365559089065501,05/03/2011 01:23,322.3
365559089065501,05/03/2011 01:24,322.35
365559089065501,05/03/2011 01:25,322.34
365559089065501,05/03/2011 01:26,322.42
365559089065501,05/03/2011 01:27,322.41
365559089065501,05/03/2011 01:28,322.41
365559089065501,05/03/2011 01:29,322.4
365559089065501,05/03/2011 01:30,322.39
365559089065501,05/03/2011 01:31,322.34
365559089065501,05/03/2011 01:32,322.39
365559089065501,05/03/2011 01:33,322.4
365559089065501,05/03/2011 01:34,322.42
365559089065501,05/03/2011 01:35,322.4
365559089065501,05/03/2011 01:36,322.38
365559089065501,05/03/2011 01:37,322.45
365559089065501,05/03/2011 01:38,322.45
365559089065501,05/03/2011 01:39,322.5
365559089065501,05/03/2011 01:40,322.44
365559089065501,05/03/2011 01:41,322.43
365559089065501,05/03/2011 01:42,322.49
365559089065501,05/03/2011 01:43,322.48
365559089065501,05/03/2011 01:44,322.45
365559089065501,05/03/2011 01:45,322.49
365559089065501,05/03/2011 01:46,322.49
365559089065501,05/03/2011 01:47,322.5
365559089065501,05/03/2011 01:48,322.49
365559089065501,05/03/2011 01:49,322.52
365559089065501,05/03/2011 01:50,322.49
365559089065501,05/03/2011 01:51,322.54
365559089065501,05/03/2011 01:52,322.55
365559089065501,05/03/2011 01:53,322.57
365559089065501,05/03/2011 01:54,322.51
365559089065501,05/03/2011 01:55,322.55
365559089065501,05/03/2011 01:56,322.6
365559089065501,05/03/2011 01:57,322.58
365559089065501,05/03/2011 01:58,322.52
365559089065501,05/03/2011 01:59,322.54
365559089065501,05/03/2011 02:00,322.6
365559089065501,05/03/2011 02:01,322.57
365559089065501,05/03/2011 02:02,322.59
365559089065501,05/03/2011 02:03,322.61
365559089065501,05/03/2011 02:04,322.61
365559089065501,05/03/2011 02:05,322.59
365559089065501,05/03/2011 02:06,322.61
365559089065501,05/03/2011 02:07,322.61
365559089065501,05/03/2011 02:08,322.64
365559089065501,05/03/2011 02:09,322.63
365559089065501,05/03/2011 02:10,322.65
365559089065501,05/03/2011 02:11,322.63
365559089065501,05/03/2011 02:12,322.64
365559089065501,05/03/2011 02:13,322.66
365559089065501,05/03/2011 02:14,322.66
365559089065501,05/03/2011 02:15,322.66
365559089065501,05/03/2011 02:16,322.71
365559089065501,05/03/2011 02:17,322.69
365559089065501,05/03/2011 02:18,322.7
365559089065501,05/03/2011 02:19,322.74
365559089065501,05/03/2011 02:20,322.71
365559089065501,05/03/2011 02:21,322.69
365559089065501,05/03/2011 02:22,322.76
365559089065501,05/03/2011 02:23,322.76
365559089065501,05/03/2011 02:24,322.74
365559089065501,05/03/2011 02:25,322.7
365559089065501,05/03/2011 02:26,322.75
365559089065501,05/03/2011 02:27,322.76
365559089065501,05/03/2011 02:28,322.72
365559089065501,05/03/2011 02:29,322.77
365559089065501,05/03/2011 02:30,322.76
365559089065501,05/03/2011 02:31,322.79
365559089065501,05/03/2011 02:32,322.78
365559089065501,05/03/2011 02:33,322.76
365559089065501,05/03/2011 02:34,322.79
365559089065501,05/03/2011 02:35,322.8
365559089065501,05/03/2011 02:36,322.79
365559089065501,05/03/2011 02:37,322.8
365559089065501,05/03/2011 02:38,322.84
365559089065501,05/03/2011 02:39,322.83
365559089065501,05/03/2011 02:40,322.8
365559089065501,05/03/2011 02:41,322.81
365559089065501,05/03/2011 02:42,322.85
365559089065501,05/03/2011 02:43,322.81
365559089065501,05/03/2011 02:44,322.89
365559089065501,05/03/2011 02:45,322.88
365559089065501,05/03/2011 02:46,322.88
365559089065501,05/03/2011 02:47,322.89
365559089065501,05/03/2011 02:48,322.87
365559089065501,05/03/2011 02:49,322.88
365559089065501,05/03/2011 02:50,322.87
365559089065501,05/03/2011 02:51,322.86
365559089065501,05/03/2011 02:52,322.88
365559089065501,05/03/2011 02:53,322.89
365559089065501,05/03/2011 02:54,322.92
365559089065501,05/03/2011 02:55,322.95
365559089065501,05/03/2011 02:56,322.93
365559089065501,05/03/2011 02:57,322.9
365559089065501,05/03/2011 02:58,322.93
365559089065501,05/03/2011 02:59,323.01
365559089065501,05/03/2011 03:00,322.92
365559089065501,05/03/2011 03:01,322.96
365559089065501,05/03/2011 03:02,322.92
365559089065501,05/03/2011 03:03,322.97
365559089065501,05/03/2011 03:04,322.99
365559089065501,05/03/2011 03:05,323.02
365559089065501,05/03/2011 03:06,323.01
365559089065501,05/03/2011 03:07,323.03
365559089065501,05/03/2011 03:08,322.99
365559089065501,05/03/2011 03:09,322.99
365559089065501,05/03/2011 03:10,323.05
365559089065501,05/03/2011 03:11,323.04
365559089065501,05/03/2011 03:12,323.03
365559089065501,05/03/2011 03:13,323.04
365559089065501,05/03/2011 03:14,323.06
365559089065501,05/03/2011 03:15,323.06
365559089065501,05/03/2011 03:16,323.09
365559089065501,05/03/2011 03:17,323.08
365559089065501,05/03/2011 03:18,323.08
365559089065501,05/03/2011 03:19,323.08
365559089065501,05/03/2011 03:20,323.07
365559089065501,05/03/2011 03:21,323.06
365559089065501,05/03/2011 03:22,323.06
365559089065501,05/03/2011 03:23,323.11
365559089065501,05/03/2011 03:24,323.08
365559089065501,05/03/2011 03:25,323.12
365559089065501,05/03/2011 03:26,323.1
365559089065501,05/03/2011 03:27,323.1
365559089065501,05/03/2011 03:28,323.13
365559089065501,05/03/2011 03:29,323.14
365559089065501,05/03/2011 03:30,323.12
365559089065501,05/03/2011 03:31,323.13
365559089065501,05/03/2011 03:32,323.12
365559089065501,05/03/2011 03:33,323.13
365559089065501,05/03/2011 03:34,323.17
365559089065501,05/03/2011 03:35,323.17
365559089065501,05/03/2011 03:36,323.19
365559089065501,05/03/2011 03:37,323.2
365559089065501,05/03/2011 03:38,323.15
365559089065501,05/03/2011 03:39,323.18
365559089065501,05/03/2011 03:40,323.23
365559089065501,05/03/2011 03:41,323.22
365559089065501,05/03/2011 03:42,323.21
365559089065501,05/03/2011 03:43,323.2
365559089065501,05/03/2011 03:44,323.2
365559089065501,05/03/2011 03:45,323.22
365559089065501,05/03/2011 03:46,323.22
365559089065501,05/03/2011 03:47,323.21
365559089065501,05/03/2011 03:48,323.2
365559089065501,05/03/2011 03:49,323.24
365559089065501,05/03/2011 03:50,323.26
365559089065501,05/03/2011 03:51,323.28
365559089065501,05/03/2011 03:52,323.28
365559089065501,05/03/2011 03:53,323.28
365559089065501,05/03/2011 03:54,323.27
365559089065501,05/03/2011 03:55,323.28
365559089065501,05/03/2011 03:56,323.31
365559089065501,05/03/2011 03:57,323.31
365559089065501,05/03/2011 03:58,323.28
365559089065501,05/03/2011 03:59,323.31
365559089065501,05/03/2011 04:00,323.32
365559089065501,05/03/2011 04:01,323.32
365559089065501,05/03/2011 04:02,323.33
365559089065501,05/03/2011 04:03,323.34
365559089065501,05/03/2011 04:04,323.35
365559089065501,05/03/2011 04:05,323.32
365559089065501,05/03/2011 04:06,323.34
365559089065501,05/03/2011 04:07,323.34
365559089065501,05/03/2011 04:08,323.37
365559089065501,05/03/2011 04:09,323.35
365559089065501,05/03/2011 04:10,323.36
365559089065501,05/03/2011 04:11,323.39
365559089065501,05/03/2011 04:12,323.37
365559089065501,05/03/2011 04:13,323.4
365559089065501,05/03/2011 04:14,323.41
365559089065501,05/03/2011 04:15,323.4
365559089065501,05/03/2011 04:16,323.43
365559089065501,05/03/2011 04:17,323.41
365559089065501,05/03/2011 04:18,323.41
365559089065501,05/03/2011 04:19,323.42
365559089065501,05/03/2011 04:20,323.42
365559089065501,05/03/2011 04:21,323.44
365559089065501,05/03/2011 04:22,323.39
365559089065501,05/03/2011 04:23,323.42
365559089065501,05/03/2011 04:24,323.43
365559089065501,05/03/2011 04:25,323.46
365559089065501,05/03/2011 04:26,323.43
365559089065501,05/03/2011 04:27,323.45
365559089065501,05/03/2011 04:28,323.47
365559089065501,05/03/2011 04:29,323.49
365559089065501,05/03/2011 04:30,323.48
365559089065501,05/03/2011 04:31,323.47
365559089065501,05/03/2011 04:32,323.45
365559089065501,05/03/2011 04:33,323.47
365559089065501,05/03/2011 04:34,323.47
365559089065501,05/03/2011 04:35,323.46
365559089065501,05/03/2011 04:36,323.48
365559089065501,05/03/2011 04:37,323.48
365559089065501,05/03/2011 04:38,323.47
365559089065501,05/03/2011 04:39,323.48
365559089065501,05/03/2011 04:40,323.53
365559089065501,05/03/2011 04:41,323.48
365559089065501,05/03/2011 04:42,323.48
365559089065501,05/03/2011 04:43,323.5
365559089065501,05/03/2011 04:44,323.52
365559089065501,05/03/2011 04:45,323.52
365559089065501,05/03/2011 04:46,323.48
365559089065501,05/03/2011 04:47,323.48
365559089065501,05/03/2011 04:48,323.51
365559089065501,05/03/2011 04:49,323.52
365559089065501,05/03/2011 04:50,323.51
365559089065501,05/03/2011 04:51,323.52
365559089065501,05/03/2011 04:52,323.54
365559089065501,05/03/2011 04:53,323.53
365559089065501,05/03/2011 04:54,323.54
365559089065501,05/03/2011 04:55,323.57
365559089065501,05/03/2011 04:56,323.54
365559089065501,05/03/2011 04:57,323.52
365559089065501,05/03/2011 04:58,323.54
365559089065501,05/03/2011 04:59,323.58
365559089065501,05/03/2011 05:00,323.56
365559089065501,05/03/2011 05:01,323.57
365559089065501,05/03/2011 05:02,323.56
365559089065501,05/03/2011 05:03,323.58
365559089065501,05/03/2011 05:04,323.56
365559089065501,05/03/2011 05:05,323.58
365559089065501,05/03/2011 05:06,323.58
365559089065501,05/03/2011 05:07,323.55
365559089065501,05/03/2011 05:08,323.57
365559089065501,05/03/2011 05:09,323.6
365559089065501,05/03/2011 05:10,323.58
365559089065501,05/03/2011 05:11,323.59
365559089065501,05/03/2011 05:12,323.6
365559089065501,05/03/2011 05:13,323.59
365559089065501,05/03/2011 05:14,323.59
365559089065501,05/03/2011 05:15,323.61
365559089065501,05/03/2011 05:16,323.59
365559089065501,05/03/2011 05:17,323.61
365559089065501,05/03/2011 05:18,323.6
365559089065501,05/03/2011 05:19,323.58
365559089065501,05/03/2011 05:20,323.61
365559089065501,05/03/2011 05:21,323.63
365559089065501,05/03/2011 05:22,323.6
365559089065501,05/03/2011 05:23,323.61
365559089065501,05/03/2011 05:24,323.62
365559089065501,05/03/2011 05:25,323.62
365559089065501,05/03/2011 05:26,323.6
365559089065501,05/03/2011 05:27,323.62
365559089065501,05/03/2011 05:28,323.62
365559089065501,05/03/2011 05:29,323.65
365559089065501,05/03/2011 05:30,323.63
365559089065501,05/03/2011 05:31,323.66
365559089065501,05/03/2011 05:32,323.63
365559089065501,05/03/2011 05:33,323.61
365559089065501,05/03/2011 05:34,323.63
365559089065501,05/03/2011 05:35,323.62
365559089065501,05/03/2011 05:36,323.63
365559089065501,05/03/2011 05:37,323.63
365559089065501,05/03/2011 05:38,323.63
365559089065501,05/03/2011 05:39,323.62
365559089065501,05/03/2011 05:40,323.62
365559089065501,05/03/2011 05:41,323.65
365559089065501,05/03/2011 05:42,323.64
365559089065501,05/03/2011 05:43,323.62
365559089065501,05/03/2011 05:44,323.64
365559089065501,05/03/2011 05:45,323.65
365559089065501,05/03/2011 05:46,323.64
365559089065501,05/03/2011 05:47,323.65
365559089065501,05/03/2011 05:48,323.67
365559089065501,05/03/2011 05:49,323.66
365559089065501,05/03/2011 05:50,323.65
365559089065501,05/03/2011 05:51,323.63
365559089065501,05/03/2011 05:52,323.62
365559089065501,05/03/2011 05:53,323.64
365559089065501,05/03/2011 05:54,323.65
365559089065501,05/03/2011 05:55,323.66
365559089065501,05/03/2011 05:56,323.65
365559089065501,05/03/2011 05:57,323.64
365559089065501,05/03/2011 05:58,323.65
365559089065501,05/03/2011 05:59,323.66
365559089065501,05/03/2011 06:00,323.68
365559089065501,05/03/2011 06:01,323.7
365559089065501,05/03/2011 06:02,323.68
365559089065501,05/03/2011 06:03,323.66
365559089065501,05/03/2011 06:04,323.67
365559089065501,05/03/2011 06:05,323.68
365559089065501,05/03/2011 06:06,323.71
365559089065501,05/03/2011 06:07,323.69
365559089065501,05/03/2011 06:08,323.7
365559089065501,05/03/2011 06:09,323.69
365559089065501,05/03/2011 06:10,323.7
365559089065501,05/03/2011 06:11,323.7
365559089065501,05/03/2011 06:12,323.69
365559089065501,05/03/2011 06:13,323.69
365559089065501,05/03/2011 06:14,323.67
365559089065501,05/03/2011 06:15,323.71
365559089065501,05/03/2011 06:16,323.69
365559089065501,05/03/2011 06:17,323.69
365559089065501,05/03/2011 06:18,323.67
365559089065501,05/03/2011 06:19,323.66
365559089065501,05/03/2011 06:20,323.68
365559089065501,05/03/2011 06:21,323.66
365559089065501,05/03/2011 06:22,323.67
365559089065501,05/03/2011 06:23,323.69
365559089065501,05/03/2011 06:24,323.69
365559089065501,05/03/2011 06:25,323.7
365559089065501,05/03/2011 06:26,323.68
365559089065501,05/03/2011 06:27,323.67
365559089065501,05/03/2011 06:28,323.67
365559089065501,05/03/2011 06:29,323.69
365559089065501,05/03/2011 06:30,323.7
365559089065501,05/03/2011 06:31,323.71
365559089065501,05/03/2011 06:32,323.68
365559089065501,05/03/2011 06:33,323.7
365559089065501,05/03/2011 06:34,323.7
365559089065501,05/03/2011 06:35,323.71
365559089065501,05/03/2011 06:36,323.7
365559089065501,05/03/2011 06:37,323.71
365559089065501,05/03/2011 06:38,323.7
365559089065501,05/03/2011 06:39,323.71
365559089065501,05/03/2011 06:40,323.68
365559089065501,05/03/2011 06:41,323.69
365559089065501,05/03/2011 06:42,323.68
365559089065501,05/03/2011 06:43,323.67
365559089065501,05/03/2011 06:44,323.67
365559089065501,05/03/2011 06:45,323.7
365559089065501,05/03/2011 06:46,323.69
365559089065501,05/03/2011 06:47,323.7
365559089065501,05/03/2011 06:48,323.7
365559089065501,05/03/2011 06:49,323.67
365559089065501,05/03/2011 06:50,323.69
365559089065501,05/03/2011 06:51,323.69
365559089065501,05/03/2011 06:52,323.71
365559089065501,05/03/2011 06:53,323.73
365559089065501,05/03/2011 06:54,323.7
365559089065501,05/03/2011 06:55,323.73
365559089065501,05/03/2011 06:56,323.7
365559089065501,05/03/2011 06:57,323.7
365559089065501,05/03/2011 06:58,323.7
365559089065501,05/03/2011 06:59,323.7
365559089065501,05/03/2011 07:00,323.69
365559089065501,05/03/2011 07:01,323.7
365559089065501,05/03/2011 07:02,323.7
365559089065501,05/03/2011 07:03,323.71
365559089065501,05/03/2011 07:04,323.72
365559089065501,05/03/2011 07:05,323.72
365559089065501,05/03/2011 07:06,323.72
365559089065501,05/03/2011 07:07,323.72
365559089065501,05/03/2011 07:08,323.72
365559089065501,05/03/2011 07:09,323.74
365559089065501,05/03/2011 07:10,323.76
365559089065501,05/03/2011 07:11,323.72
365559089065501,05/03/2011 07:12,323.7
365559089065501,05/03/2011 07:13,323.68
365559089065501,05/03/2011 07:14,323.7
365559089065501,05/03/2011 07:15,323.73
365559089065501,05/03/2011 07:16,323.71
365559089065501,05/03/2011 07:17,323.68
365559089065501,05/03/2011 07:18,323.71
365559089065501,05/03/2011 07:19,323.71
365559089065501,05/03/2011 07:20,323.71
365559089065501,05/03/2011 07:21,323.72
365559089065501,05/03/2011 07:22,323.7
365559089065501,05/03/2011 07:23,323.7
365559089065501,05/03/2011 07:24,323.68
365559089065501,05/03/2011 07:25,323.68
365559089065501,05/03/2011 07:26,323.7
365559089065501,05/03/2011 07:27,323.7
365559089065501,05/03/2011 07:28,323.69
365559089065501,05/03/2011 07:29,323.73
365559089065501,05/03/2011 07:30,323.73
365559089065501,05/03/2011 07:31,323.73
365559089065501,05/03/2011 07:32,323.7
365559089065501,05/03/2011 07:33,323.71
365559089065501,05/03/2011 07:34,323.73
365559089065501,05/03/2011 07:35,323.7
365559089065501,05/03/2011 07:36,323.72
365559089065501,05/03/2011 07:37,323.7
365559089065501,05/03/2011 07:38,323.69
365559089065501,05/03/2011 07:39,323.69
365559089065501,05/03/2011 07:40,323.71
365559089065501,05/03/2011 07:41,323.71
365559089065501,05/03/2011 07:42,323.69
365559089065501,05/03/2011 07:43,323.7
365559089065501,05/03/2011 07:44,323.72
365559089065501,05/03/2011 07:45,323.69
365559089065501,05/03/2011 07:46,323.68
365559089065501,05/03/2011 07:47,323.67
365559089065501,05/03/2011 07:48,323.7
365559089065501,05/03/2011 07:49,323.72
365559089065501,05/03/2011 07:50,323.73
365559089065501,05/03/2011 07:51,323.68
365559089065501,05/03/2011 07:52,323.71
365559089065501,05/03/2011 07:53,323.71
365559089065501,05/03/2011 07:54,323.69
365559089065501,05/03/2011 07:55,323.71
365559089065501,05/03/2011 07:56,323.71
365559089065501,05/03/2011 07:57,323.72
365559089065501,05/03/2011 07:58,323.72
365559089065501,05/03/2011 07:59,323.7
365559089065501,05/03/2011 08:00,323.7
365559089065501,05/03/2011 08:01,323.7
365559089065501,05/03/2011 08:02,323.69
365559089065501,05/03/2011 08:03,323.67
365559089065501,05/03/2011 08:04,323.65
365559089065501,05/03/2011 08:05,323.68
365559089065501,05/03/2011 08:06,323.67
365559089065501,05/03/2011 08:07,323.67
365559089065501,05/03/2011 08:08,323.68
365559089065501,05/03/2011 08:09,323.7
365559089065501,05/03/2011 08:10,323.7
365559089065501,05/03/2011 08:11,323.68
365559089065501,05/03/2011 08:12,323.69
365559089065501,05/03/2011 08:13,323.7
365559089065501,05/03/2011 08:14,323.71
365559089065501,05/03/2011 08:15,323.72
365559089065501,05/03/2011 08:16,323.69
365559089065501,05/03/2011 08:17,323.71
365559089065501,05/03/2011 08:18,323.69
365559089065501,05/03/2011 08:19,323.68
365559089065501,05/03/2011 08:20,323.68
365559089065501,05/03/2011 08:21,323.67
365559089065501,05/03/2011 08:22,323.73
365559089065501,05/03/2011 08:23,323.73
365559089065501,05/03/2011 08:24,323.72
365559089065501,05/03/2011 08:25,323.72
365559089065501,05/03/2011 08:26,323.72
365559089065501,05/03/2011 08:27,323.69
365559089065501,05/03/2011 08:28,323.69
365559089065501,05/03/2011 08:29,323.69
365559089065501,05/03/2011 08:30,323.71
365559089065501,05/03/2011 08:31,323.68
365559089065501,05/03/2011 08:32,323.69
365559089065501,05/03/2011 08:33,323.68
365559089065501,05/03/2011 08:34,323.67
365559089065501,05/03/2011 08:35,323.68
365559089065501,05/03/2011 08:36,323.69
365559089065501,05/03/2011 08:37,323.68
365559089065501,05/03/2011 08:38,323.69
365559089065501,05/03/2011 08:39,323.68
365559089065501,05/03/2011 08:40,323.66
365559089065501,05/03/2011 08:41,323.67
365559089065501,05/03/2011 08:42,323.66
365559089065501,05/03/2011 08:43,323.68
365559089065501,05/03/2011 08:44,323.68
365559089065501,05/03/2011 08:45,323.68
365559089065501,05/03/2011 08:46,323.69
365559089065501,05/03/2011 08:47,323.67
365559089065501,05/03/2011 08:48,323.67
365559089065501,05/03/2011 08:49,323.68
365559089065501,05/03/2011 08:50,323.68
365559089065501,05/03/2011 08:51,323.68
365559089065501,05/03/2011 08:52,323.67
365559089065501,05/03/2011 08:53,323.66
365559089065501,05/03/2011 08:54,323.68
365559089065501,05/03/2011 08:55,323.67
365559089065501,05/03/2011 08:56,323.66
365559089065501,05/03/2011 08:57,323.66
365559089065501,05/03/2011 08:58,323.68
365559089065501,05/03/2011 08:59,323.68
365559089065501,05/03/2011 09:00,323.69
365559089065501,05/03/2011 09:01,323.69